Weather reports worldwide

Advertisment
List/Sylt, Germany (10020): temperature & dewpoint: 12.10.2018 19:00:00 - 18.10.2018 19:00:00 (CEST)List/Sylt, Germany (10020): temperature 5cm & temperature -5cm: 12.10.2018 19:00:00 - 18.10.2018 19:00:00 (CEST)List/Sylt, Germany (10020): temperature -20cm: 12.10.2018 19:00:00 - 18.10.2018 19:00:00 (CEST)List/Sylt, Germany (10020): wind speed & gusts: 12.10.2018 19:00:00 - 18.10.2018 19:00:00 (CEST)List/Sylt, Germany (10020): wind direction: 12.10.2018 19:00:00 - 18.10.2018 19:00:00 (CEST)List/Sylt, Germany (10020): reduced air pressure: 12.10.2018 19:00:00 - 18.10.2018 19:00:00 (CEST)List/Sylt, Germany (10020): visibility: 12.10.2018 19:00:00 - 18.10.2018 19:00:00 (CEST)List/Sylt, Germany (10020): sunshine duration: 12.10.2018 19:00:00 - 18.10.2018 19:00:00 (CEST)List/Sylt, Germany (10020): precipitation: 12.10.2018 19:00:00 - 18.10.2018 19:00:00 (CEST)
Date & Time tt [°C] td [°C] tt 5cm [°C] tt -5cm [°C] tt -20cm [°C] ff [km/h] ff [kn] fx [km/h] fx [kn] dd ppp [hPa] vv [km] sd [min] rr [mm]
18.10.2018 19:00:00 - - - - - - - - - - - - - -
18.10.2018 18:00:00 11,1 5,8 10,0 13,1 13,6 26 14 38 20 NNW 1025,5 31 54 0,0
18.10.2018 17:00:00 12,2 5,9 12,8 13,5 13,6 31 17 39 21 NNW 1025,3 8 60 0,0
18.10.2018 16:00:00 13,1 6,7 14,6 13,7 13,6 31 17 41 22 NNW 1025,2 20 60 0,0
18.10.2018 15:00:00 13,8 6,5 16,4 13,8 13,6 31 17 37 20 NNW 1025,2 3,0 60 0,0
18.10.2018 14:00:00 13,9 6,4 16,6 13,7 13,5 29 16 37 20 NNW 1025,3 4,1 60 0,0
18.10.2018 13:00:00 13,9 8,0 17,2 13,4 13,4 27 15 40 21 N 1025,2 5 58 0,0
18.10.2018 12:00:00 13,6 8,7 16,0 13,2 13,4 29 16 41 22 N 1025,2 7 59 0,0
18.10.2018 11:00:00 13,1 9,1 14,4 12,9 13,5 31 17 41 22 N 1024,8 12 60 0,0
18.10.2018 10:00:00 12,2 9,5 12,8 12,8 13,6 27 15 37 20 N 1024,0 15 60 0,0
18.10.2018 09:00:00 10,8 9,1 9,7 12,9 13,7 22 12 40 22 N 1023,5 25 11 0,0
18.10.2018 08:00:00 11,0 9,1 10,4 13,2 13,7 30 16 45 25 N 1022,9 41 0 0,0
18.10.2018 07:00:00 11,3 10,0 10,8 13,3 13,8 33 18 43 23 N 1022,0 30 0 0,0
18.10.2018 06:00:00 12,1 11,5 11,5 13,5 13,8 32 17 45 24 NNW 1021,4 14 0 0,0
18.10.2018 05:00:00 12,7 12,2 12,5 13,5 13,8 24 13 33 18 NNW 1021,1 28 0 0,2
18.10.2018 04:00:00 13,1 12,8 12,9 13,5 13,9 22 12 29 16 NNW 1020,8 1,1 0 0,0
18.10.2018 03:00:00 12,9 12,5 12,5 13,4 13,9 11 6 19 10 WNW 1020,8 7 0 0,0
18.10.2018 02:00:00 13,0 12,7 12,4 13,6 14,0 15 8 19 10 NW 1020,7 7 0 0,0
18.10.2018 01:00:00 13,1 13,0 12,9 13,5 14,1 12 6 16 8 WNW 1020,7 3,8 0 0,0
18.10.2018 00:00:00 13,0 13,0 11,7 13,6 14,2 9 5 11 6 WNW 1020,4 0,1 0 0,0
17.10.2018 23:00:00 13,0 12,9 11,3 13,8 14,3 9 5 11 6 WSW 1020,3 1,0 0 0,0
17.10.2018 22:00:00 13,3 13,0 12,8 14,0 14,4 10 5 12 7 WSW 1020,3 2,7 0 0,0
17.10.2018 21:00:00 13,1 12,7 11,3 14,1 14,5 9 5 10 5 WSW 1019,9 4,0 0 0,0
17.10.2018 20:00:00 13,4 12,8 9,0 14,5 14,6 4 2 12 7 WSW 1019,6 5 0 0,0
17.10.2018 19:00:00 14,0 12,7 12,7 15,0 14,6 8 5 17 9 NW 1019,1 8 0 0,0
17.10.2018 18:00:00 14,7 12,9 14,6 15,5 14,6 11 6 22 12 NW 1018,9 12 0 0,0
17.10.2018 17:00:00 15,1 13,6 15,9 15,8 14,5 15 8 21 12 WNW 1018,7 7 0 0,0
17.10.2018 16:00:00 16,1 13,9 17,7 16,0 14,4 12 7 18 10 W 1018,4 4,9 6 0,0
17.10.2018 15:00:00 16,5 13,7 18,8 15,8 14,2 9 5 20 11 WSW 1018,3 5 0 0,0
17.10.2018 14:00:00 17,5 13,4 20,9 15,6 14,0 12 7 22 12 SW 1018,1 7 35 0,0
17.10.2018 13:00:00 17,3 13,2 21,5 15,1 13,8 14 8 19 11 SSW 1018,2 6 26 0,0
17.10.2018 12:00:00 15,5 13,4 18,4 14,4 13,6 15 8 24 13 S 1018,2 4,9 48 0,0
17.10.2018 11:00:00 15,0 13,4 16,1 13,7 13,6 16 9 26 14 S 1018,0 4,3 60 0,0
17.10.2018 10:00:00 14,4 13,1 14,1 13,3 13,6 18 10 26 14 S 1017,5 3,8 41 0,0
17.10.2018 09:00:00 14,1 13,0 12,8 13,3 13,7 18 10 30 16 S 1017,5 3,5 0 0,0
17.10.2018 08:00:00 14,2 13,1 12,9 13,3 13,7 21 11 27 14 S 1017,2 3,6 0 0,0
17.10.2018 07:00:00 13,8 13,1 12,8 13,3 13,8 19 10 24 13 SSE 1017,0 3,1 0 0,0
17.10.2018 06:00:00 13,9 13,2 12,7 13,4 13,9 16 8 19 11 SSE 1017,2 2,7 0 0,0
17.10.2018 05:00:00 14,2 13,5 13,0 13,5 13,9 14 7 18 10 S 1017,2 2,7 0 0,0
17.10.2018 04:00:00 14,4 13,7 13,0 13,6 14,0 14 8 19 10 SSE 1017,4 2,5 0 0,0
17.10.2018 03:00:00 14,6 13,9 13,2 13,7 14,0 15 8 22 12 S 1017,7 2,5 0 0,0
17.10.2018 02:00:00 14,7 14,0 13,7 13,8 14,1 16 8 22 12 S 1017,8 3,0 0 0,0
17.10.2018 01:00:00 14,2 13,8 13,0 13,8 14,2 13 7 21 11 S 1017,9 2,4 0 0,0
17.10.2018 00:00:00 14,0 13,8 13,0 14,0 14,3 16 9 20 11 SSE 1018,1 2,4 0 0,0
16.10.2018 23:00:00 13,6 13,6 12,7 14,2 14,3 15 8 22 12 SSE 1018,2 2,7 0 0,0
16.10.2018 22:00:00 13,2 13,1 13,0 14,5 14,4 18 10 28 15 SSE 1018,2 0,2 0 0,0
16.10.2018 21:00:00 13,3 13,1 13,2 14,6 14,4 20 11 27 15 S 1018,3 0,2 0 0,0
16.10.2018 20:00:00 14,0 13,6 14,0 14,8 14,4 17 9 24 13 S 1018,5 1,7 0 0,0
16.10.2018 19:00:00 14,4 14,1 14,6 15,0 14,4 16 9 22 12 S 1018,3 3,4 0 0,0
16.10.2018 18:00:00 15,4 14,0 14,9 15,3 14,3 11 6 16 9 S 1018,1 5 20 0,0
16.10.2018 17:00:00 16,0 13,9 17,3 15,7 14,2 13 7 20 11 SSW 1017,9 9 43 0,0
16.10.2018 16:00:00 16,8 13,7 20,6 15,7 14,0 11 6 18 10 S 1017,9 10 49 0,0
16.10.2018 15:00:00 16,6 13,3 21,6 15,2 13,8 10 6 16 9 S 1017,6 8 6 0,0
16.10.2018 14:00:00 15,0 12,9 18,2 14,8 13,7 12 7 16 8 S 1017,6 8 0 0,0
16.10.2018 13:00:00 14,5 12,4 17,0 14,4 13,6 11 6 16 8 S 1017,6 11 0 0,0
16.10.2018 12:00:00 13,6 11,7 16,0 13,9 13,5 6 4 10 6 S 1017,4 16 0 0,0
16.10.2018 11:00:00 12,8 11,1 14,2 13,5 13,5 5 3 7 4 S 1017,3 14 0 0,0
16.10.2018 10:00:00 12,7 11,6 13,8 13,2 13,5 0 0 3 2 N 1017,0 14 0 0,0
16.10.2018 09:00:00 11,8 11,3 12,0 12,9 13,6 2 1 10 6 ENE 1016,7 11 0 0,0
16.10.2018 08:00:00 11,2 10,8 10,7 13,0 13,7 9 5 12 7 NNE 1016,2 12 0 0,0
16.10.2018 07:00:00 10,8 10,0 9,9 13,0 13,7 6 3 9 5 N 1015,8 21 0 0,0
16.10.2018 06:00:00 10,5 9,7 9,6 13,1 13,8 8 5 15 8 NE 1015,3 22 0 0,0
16.10.2018 05:00:00 10,7 9,5 9,9 13,4 13,9 14 8 19 10 NNE 1015,1 28 0 0,0
16.10.2018 04:00:00 11,6 10,7 11,5 13,6 14,0 14 8 20 11 N 1015,5 21 0 0,0
16.10.2018 03:00:00 12,0 11,4 11,9 13,6 14,0 13 7 17 9 N 1015,3 11 0 0,0
16.10.2018 02:00:00 12,2 11,2 11,7 13,7 14,1 6 3 10 5 N 1014,9 10 0 0,0
16.10.2018 01:00:00 13,1 12,4 12,4 13,8 14,2 5 3 9 5 E 1014,6 10 0 0,0
16.10.2018 00:00:00 12,8 11,9 12,4 13,8 14,3 9 5 15 8 ENE 1014,7 21 0 0,0
15.10.2018 23:00:00 11,9 10,9 11,3 13,9 14,4 14 7 19 10 NE 1014,5 25 0 0,0
15.10.2018 22:00:00 12,0 11,1 11,0 14,1 14,5 17 9 22 12 NNE 1014,1 29 0 0,0
15.10.2018 21:00:00 13,1 12,3 12,2 14,4 14,6 18 10 23 13 NNE 1013,9 4,6 0 0,0
15.10.2018 20:00:00 13,0 12,5 12,4 14,6 14,6 11 6 15 8 NNW 1013,9 1,7 0 0,0
15.10.2018 19:00:00 13,6 11,9 12,6 15,0 14,7 11 6 14 7 W 1013,6 4,8 0 0,0
15.10.2018 18:00:00 15,5 12,2 14,7 15,6 14,7 8 4 11 6 SSE 1012,7 8 50 0,0
15.10.2018 17:00:00 17,2 12,3 18,7 16,1 14,5 5 3 9 5 SSE 1012,4 10 60 0,0
15.10.2018 16:00:00 18,1 12,6 20,7 16,3 14,3 5 3 14 7 SW 1012,3 10 60 0,0
15.10.2018 15:00:00 18,0 12,9 23,1 16,1 14,1 10 5 17 9 SSE 1012,2 7 60 0,0
15.10.2018 14:00:00 17,3 12,7 22,2 15,6 13,9 11 6 17 9 SE 1012,1 6 60 0,0
15.10.2018 13:00:00 15,8 12,1 21,0 15,0 13,7 12 7 16 9 SE 1012,3 7 60 0,0
15.10.2018 12:00:00 16,1 12,2 21,5 14,2 13,6 11 6 16 9 SE 1012,2 8 60 0,0
15.10.2018 11:00:00 15,2 11,9 18,6 13,6 13,5 12 6 18 10 SSE 1012,1 8 60 0,0
15.10.2018 10:00:00 14,5 12,1 16,6 13,2 13,5 9 5 18 10 SE 1011,9 7 60 0,0
15.10.2018 09:00:00 14,0 12,3 13,8 13,1 13,6 8 4 21 11 S 1011,6 6 15 0,0
15.10.2018 08:00:00 13,7 12,2 12,0 13,0 13,7 16 9 21 11 SSE 1010,9 6 0 0,0
15.10.2018 07:00:00 13,8 12,3 12,0 13,1 13,8 16 9 20 11 SE 1010,7 6 0 0,0
15.10.2018 06:00:00 14,1 12,2 12,2 13,3 13,8 15 8 18 10 SSE 1010,4 9 0 0,0
15.10.2018 05:00:00 14,3 12,2 12,4 13,4 13,9 14 8 19 10 SSE 1010,4 9 0 0,0
15.10.2018 04:00:00 14,8 12,5 13,0 13,5 14,0 17 9 21 11 S 1010,3 11 0 0,0
15.10.2018 03:00:00 15,2 12,4 13,2 13,7 14,1 16 9 20 11 S 1010,1 13 0 0,0
15.10.2018 02:00:00 15,4 12,4 13,4 13,8 14,1 15 8 22 12 S 1010,0 14 0 0,0
15.10.2018 01:00:00 15,8 12,3 13,8 14,0 14,2 16 9 29 15 S 1009,9 15 0 0,0
15.10.2018 00:00:00 15,8 12,5 14,4 14,2 14,2 23 13 37 20 S 1009,5 11 0 0,0
14.10.2018 23:00:00 16,0 12,8 15,2 14,3 14,3 32 17 42 23 SSE 1009,3 12 0 0,0
14.10.2018 22:00:00 16,3 12,7 15,8 14,3 14,3 35 19 43 23 SSE 1009,0 12 0 0,0
14.10.2018 21:00:00 16,3 12,7 15,0 14,4 14,4 29 16 37 20 SSE 1008,8 13 0 0,0
14.10.2018 20:00:00 16,3 12,8 15,0 14,6 14,4 28 15 41 22 SSE 1008,6 11 0 0,0
14.10.2018 19:00:00 16,1 12,6 15,0 14,9 14,4 33 18 44 24 SSE 1008,3 11 2 0,0
14.10.2018 18:00:00 17,2 12,6 16,3 15,2 14,4 27 14 37 20 SSE 1007,8 13 57 0,0
14.10.2018 17:00:00 17,4 12,7 18,4 15,6 14,3 22 12 35 19 SSE 1008,1 6 60 0,0
14.10.2018 16:00:00 18,0 12,8 20,4 15,6 14,1 25 13 34 18 SSE 1008,3 4,2 60 0,0
14.10.2018 15:00:00 17,8 12,8 21,3 15,4 13,9 23 12 40 21 SSE 1008,6 3,9 60 0,0
14.10.2018 14:00:00 17,6 12,5 21,2 15,0 13,7 25 13 38 21 SSE 1009,3 5 60 0,0
14.10.2018 13:00:00 16,7 11,5 20,6 14,4 13,6 27 15 36 19 SSE 1009,9 4,7 60 0,0
14.10.2018 12:00:00 16,1 11,1 19,8 13,9 13,5 26 14 36 19 SSE 1010,4 7 60 0,0
14.10.2018 11:00:00 15,1 10,7 17,4 13,4 13,5 29 15 35 19 SSE 1010,9 10 60 0,0
14.10.2018 10:00:00 14,9 10,5 16,3 13,1 13,6 19 10 32 18 SSE 1011,2 9 60 0,0
14.10.2018 09:00:00 13,8 10,4 13,0 13,0 13,7 11 6 26 14 SE 1011,4 11 19 0,0
14.10.2018 08:00:00 13,5 10,5 11,9 13,2 13,8 21 11 31 17 SE 1011,4 11 0 0,0
14.10.2018 07:00:00 15,0 10,7 13,4 13,4 13,8 22 12 33 18 SE 1011,6 15 0 0,0
14.10.2018 06:00:00 15,5 10,9 13,9 13,5 13,9 23 13 39 21 SE 1012,1 15 0 0,0
14.10.2018 05:00:00 15,4 11,2 14,1 13,7 14,0 29 16 41 22 SSE 1012,6 15 0 0,0
14.10.2018 04:00:00 15,8 11,2 14,5 13,8 14,0 31 17 41 22 SSE 1013,1 18 0 0,0
14.10.2018 03:00:00 16,4 11,3 15,0 13,9 14,1 31 17 41 22 SSE 1013,8 21 0 0,0
14.10.2018 02:00:00 16,4 11,8 15,1 14,1 14,1 31 17 41 22 SSE 1014,1 21 0 0,0
14.10.2018 01:00:00 16,6 12,4 15,3 14,2 14,2 31 17 42 23 SSE 1014,4 22 0 0,0
14.10.2018 00:00:00 17,4 12,5 16,2 14,3 14,2 34 18 44 24 SSE 1014,6 30 0 0,0
13.10.2018 23:00:00 17,5 13,0 16,2 14,4 14,3 28 15 39 21 SSE 1015,0 32 0 0,0
13.10.2018 22:00:00 17,8 13,2 16,4 14,5 14,3 30 16 41 22 SSE 1015,0 32 0 0,0
13.10.2018 21:00:00 17,3 13,3 15,9 14,6 14,3 29 15 41 22 SSE 1015,4 29 0 0,0
13.10.2018 20:00:00 16,8 13,6 15,5 14,8 14,4 24 13 34 18 SE 1016,0 22 0 0,0
13.10.2018 19:00:00 17,0 13,9 15,8 15,1 14,4 25 13 33 18 SE 1016,2 18 3 0,0
13.10.2018 18:00:00 17,7 14,2 17,1 15,4 14,3 24 13 36 19 SSE 1016,4 13 60 0,0
13.10.2018 17:00:00 17,5 14,0 19,2 15,6 14,2 23 12 34 19 SSE 1017,0 6 60 0,0
13.10.2018 16:00:00 18,2 13,9 19,7 15,7 14,0 29 16 37 20 SSE 1017,4 6 60 0,0
13.10.2018 15:00:00 18,5 14,1 21,9 15,6 13,8 25 13 37 20 S 1017,9 13 60 0,0
13.10.2018 14:00:00 18,5 14,0 22,4 15,0 13,7 27 14 38 21 S 1018,4 11 60 0,0
13.10.2018 13:00:00 17,8 13,6 20,7 14,6 13,5 28 15 36 20 S 1018,8 8 60 0,0
13.10.2018 12:00:00 17,1 13,5 18,9 14,2 13,4 29 16 38 21 S 1018,8 15 60 0,0
13.10.2018 11:00:00 16,4 13,4 17,7 13,7 13,4 29 16 39 21 S 1018,8 16 42 0,0
13.10.2018 10:00:00 16,0 13,1 17,2 13,5 13,4 31 17 40 22 SSE 1018,7 19 44 0,0
13.10.2018 09:00:00 15,1 13,0 14,5 13,3 13,4 27 14 37 20 S 1018,7 14 0 0,0
13.10.2018 08:00:00 15,0 13,0 13,9 13,3 13,4 27 15 35 19 S 1018,7 13 0 0,0
13.10.2018 07:00:00 15,0 12,9 13,9 13,3 13,5 25 13 36 20 S 1018,9 13 0 0,0
13.10.2018 06:00:00 15,6 13,0 14,4 13,4 13,5 29 16 36 19 S 1018,9 16 0 0,0
13.10.2018 05:00:00 15,3 12,9 14,1 13,5 13,5 27 15 37 20 S 1018,8 13 0 0,0
13.10.2018 04:00:00 15,9 12,9 14,6 13,5 13,6 30 16 38 20 S 1018,6 20 0 0,0
13.10.2018 03:00:00 16,0 12,9 14,7 13,6 13,6 31 17 38 21 S 1018,3 20 0 0,0
13.10.2018 02:00:00 16,3 13,0 15,0 13,6 13,6 28 15 37 20 S 1018,2 21 0 0,0
13.10.2018 01:00:00 15,5 13,2 14,4 13,7 13,7 24 13 46 25 S 1018,5 15 0 0,0
13.10.2018 00:00:00 15,8 13,3 14,7 13,7 13,7 35 19 44 24 SSE 1018,4 15 0 0,0
12.10.2018 23:00:00 15,6 13,3 14,7 13,8 13,7 33 18 41 22 SSE 1018,9 16 0 0,0
12.10.2018 22:00:00 15,4 13,3 14,5 13,8 13,8 32 17 39 21 SSE 1019,1 14 0 0,0
12.10.2018 21:00:00 15,3 13,2 14,3 13,9 13,8 28 15 37 20 SSE 1018,8 14 0 0,0
12.10.2018 20:00:00 15,0 12,9 13,9 14,1 13,9 29 15 35 19 SSE 1019,0 14 0 0,0
12.10.2018 19:00:00 15,1 12,8 14,0 14,4 13,9 26 14 35 19 SSE 1018,7 18 0 0,0

tt = temperature
td = dewpoint
tt 5cm = temperature 5cm
tt -5cm = temperature -5cm
tt -20cm = temperature -20cm
ff = wind speed
fx = gusts
dd = wind direction
ppp = reduced air pressure
vv = visibility
sd = sunshine duration
rr = precipitation

Next stations